Year,Month,Day,Hour,Minute,Value (Times are PST for windspeed in km/hr)
2016,04,29,00,00,3.40
2016,04,29,00,01,12.70
2016,04,29,00,02,5.30
2016,04,29,00,03,7.70
2016,04,29,00,04,12.80
2016,04,29,00,05,6.80
2016,04,29,00,06,9.50
2016,04,29,00,07,8.00
2016,04,29,00,08,3.60
2016,04,29,00,09,10.10
2016,04,29,00,10,5.00
2016,04,29,00,11,6.10
2016,04,29,00,12,6.50
2016,04,29,00,13,6.90
2016,04,29,00,14,8.10
2016,04,29,00,15,4.30
2016,04,29,00,16,6.70
2016,04,29,00,17,6.40
2016,04,29,00,18,9.50
2016,04,29,00,19,10.80
2016,04,29,00,20,6.00
2016,04,29,00,21,9.10
2016,04,29,00,22,4.00
2016,04,29,00,23,5.70
2016,04,29,00,24,5.80
2016,04,29,00,25,5.00
2016,04,29,00,26,4.90
2016,04,29,00,27,3.90
2016,04,29,00,28,10.40
2016,04,29,00,29,5.70
2016,04,29,00,30,7.70
2016,04,29,00,31,5.60
2016,04,29,00,32,5.80
2016,04,29,00,33,7.40
2016,04,29,00,34,5.10
2016,04,29,00,35,3.70
2016,04,29,00,36,6.80
2016,04,29,00,37,5.10
2016,04,29,00,38,6.40
2016,04,29,00,39,2.80
2016,04,29,00,40,5.00
2016,04,29,00,41,5.60
2016,04,29,00,42,2.40
2016,04,29,00,43,4.40
2016,04,29,00,44,4.80
2016,04,29,00,45,3.10
2016,04,29,00,46,1.40
2016,04,29,00,47,2.20
2016,04,29,00,48,2.90
2016,04,29,00,49,7.50
2016,04,29,00,50,7.20
2016,04,29,00,51,6.40
2016,04,29,00,52,7.80
2016,04,29,00,53,3.90
2016,04,29,00,54,6.00
2016,04,29,00,55,4.50
2016,04,29,00,56,9.70
2016,04,29,00,57,6.60
2016,04,29,00,58,5.30
2016,04,29,00,59,1.50
2016,04,29,01,00,4.20
2016,04,29,01,01,4.90
2016,04,29,01,02,3.10
2016,04,29,01,03,4.20
2016,04,29,01,04,4.90
2016,04,29,01,05,5.20
2016,04,29,01,06,7.00
2016,04,29,01,07,3.70
2016,04,29,01,08,0.40
2016,04,29,01,09,1.20
2016,04,29,01,10,2.50
2016,04,29,01,11,2.20
2016,04,29,01,12,4.10
2016,04,29,01,13,4.70
2016,04,29,01,14,2.00
2016,04,29,01,15,4.30
2016,04,29,01,16,4.80
2016,04,29,01,17,7.10
2016,04,29,01,18,3.10
2016,04,29,01,19,3.50
2016,04,29,01,20,5.50
2016,04,29,01,21,5.00
2016,04,29,01,22,6.10
2016,04,29,01,23,5.90
2016,04,29,01,24,8.20
2016,04,29,01,25,7.20
2016,04,29,01,26,4.30
2016,04,29,01,27,9.80
2016,04,29,01,28,6.10
2016,04,29,01,29,10.70
2016,04,29,01,30,2.80
2016,04,29,01,31,7.30
2016,04,29,01,32,3.40
2016,04,29,01,33,1.40
2016,04,29,01,34,4.80
2016,04,29,01,35,10.60
2016,04,29,01,36,8.20
2016,04,29,01,37,6.10
2016,04,29,01,38,7.60
2016,04,29,01,39,6.00
2016,04,29,01,40,6.40
2016,04,29,01,41,5.10
2016,04,29,01,42,7.30
2016,04,29,01,43,7.50
2016,04,29,01,44,6.80
2016,04,29,01,45,7.00
2016,04,29,01,46,5.80
2016,04,29,01,47,6.40
2016,04,29,01,48,5.90
2016,04,29,01,49,6.40
2016,04,29,01,50,7.40
2016,04,29,01,51,4.70
2016,04,29,01,52,2.90
2016,04,29,01,53,5.40
2016,04,29,01,54,3.00
2016,04,29,01,55,3.40
2016,04,29,01,56,6.00
2016,04,29,01,57,6.60
2016,04,29,01,58,8.10
2016,04,29,01,59,6.80
2016,04,29,02,00,4.60
2016,04,29,02,01,8.90
2016,04,29,02,02,8.00
2016,04,29,02,03,5.10
2016,04,29,02,04,5.30
2016,04,29,02,05,2.80
2016,04,29,02,06,5.40
2016,04,29,02,07,4.70
2016,04,29,02,08,3.90
2016,04,29,02,09,8.50
2016,04,29,02,10,6.90
2016,04,29,02,11,4.60
2016,04,29,02,12,7.00
2016,04,29,02,13,3.20
2016,04,29,02,14,10.90
2016,04,29,02,15,6.40
2016,04,29,02,16,7.20
2016,04,29,02,17,8.00
2016,04,29,02,18,6.00
2016,04,29,02,19,3.50
2016,04,29,02,20,8.00
2016,04,29,02,21,6.00
2016,04,29,02,22,2.20
2016,04,29,02,23,3.20
2016,04,29,02,24,3.10
2016,04,29,02,25,3.70
2016,04,29,02,26,1.10
2016,04,29,02,27,6.40
2016,04,29,02,28,4.40
2016,04,29,02,29,2.50
2016,04,29,02,30,4.90
2016,04,29,02,31,3.20
2016,04,29,02,32,5.90
2016,04,29,02,33,6.30
2016,04,29,02,34,6.80
2016,04,29,02,35,1.50
2016,04,29,02,36,3.80
2016,04,29,02,37,4.90
2016,04,29,02,38,4.90
2016,04,29,02,39,2.20
2016,04,29,02,40,2.60
2016,04,29,02,41,3.60
2016,04,29,02,42,3.00
2016,04,29,02,43,2.70
2016,04,29,02,44,10.00
2016,04,29,02,45,5.00
2016,04,29,02,46,7.70
2016,04,29,02,47,3.80
2016,04,29,02,48,5.30
2016,04,29,02,49,14.60
2016,04,29,02,50,9.70
2016,04,29,02,51,6.20
2016,04,29,02,52,5.50
2016,04,29,02,53,10.00
2016,04,29,02,54,4.10
2016,04,29,02,55,6.50
2016,04,29,02,56,5.20
2016,04,29,02,57,2.40
2016,04,29,02,58,1.70
2016,04,29,02,59,0.20
2016,04,29,03,00,0.70
2016,04,29,03,01,4.60
2016,04,29,03,02,6.80
2016,04,29,03,03,7.30
2016,04,29,03,04,11.50
2016,04,29,03,05,11.60
2016,04,29,03,06,9.00
2016,04,29,03,07,7.20
2016,04,29,03,08,8.80
2016,04,29,03,09,7.60
2016,04,29,03,10,8.10
2016,04,29,03,11,10.30
2016,04,29,03,12,8.80
2016,04,29,03,13,17.50
2016,04,29,03,14,10.90
2016,04,29,03,15,8.20
2016,04,29,03,16,7.70
2016,04,29,03,17,11.20
2016,04,29,03,18,14.70
2016,04,29,03,19,8.10
2016,04,29,03,20,8.70
2016,04,29,03,21,10.80
2016,04,29,03,22,13.40
2016,04,29,03,23,8.60
2016,04,29,03,24,10.50
2016,04,29,03,25,11.00
2016,04,29,03,26,4.10
2016,04,29,03,27,4.80
2016,04,29,03,28,4.40
2016,04,29,03,29,7.70
2016,04,29,03,30,8.30
2016,04,29,03,31,8.00
2016,04,29,03,32,3.80
2016,04,29,03,33,7.20
2016,04,29,03,34,6.80
2016,04,29,03,35,6.50
2016,04,29,03,36,5.80
2016,04,29,03,37,4.10
2016,04,29,03,38,6.00
2016,04,29,03,39,6.10
2016,04,29,03,40,7.00
2016,04,29,03,41,2.20
2016,04,29,03,42,3.10
2016,04,29,03,43,1.40
2016,04,29,03,44,1.90
2016,04,29,03,45,3.60
2016,04,29,03,46,0.60
2016,04,29,03,47,0.60
2016,04,29,03,48,5.10
2016,04,29,03,49,4.80
2016,04,29,03,50,4.50
2016,04,29,03,51,4.30
2016,04,29,03,52,6.20
2016,04,29,03,53,4.60
2016,04,29,03,54,6.60
2016,04,29,03,55,0.50
2016,04,29,03,56,3.00
2016,04,29,03,57,0.70
2016,04,29,03,58,2.20
2016,04,29,03,59,2.00
2016,04,29,04,00,2.20
2016,04,29,04,01,0.30
2016,04,29,04,02,2.70
2016,04,29,04,03,1.70
2016,04,29,04,04,2.90
2016,04,29,04,05,1.90
2016,04,29,04,06,4.40
2016,04,29,04,07,4.10
2016,04,29,04,08,6.50
2016,04,29,04,09,6.10
2016,04,29,04,10,0.90
2016,04,29,04,11,0.00
2016,04,29,04,12,3.80
2016,04,29,04,13,6.40
2016,04,29,04,14,7.90
2016,04,29,04,15,1.50
2016,04,29,04,16,4.40
2016,04,29,04,17,3.10
2016,04,29,04,18,5.40
2016,04,29,04,19,4.80
2016,04,29,04,20,1.30
2016,04,29,04,21,1.40
2016,04,29,04,22,1.40
2016,04,29,04,23,0.70
2016,04,29,04,24,1.00
2016,04,29,04,25,1.80
2016,04,29,04,26,2.70
2016,04,29,04,27,5.50
2016,04,29,04,28,1.10
2016,04,29,04,29,0.60
2016,04,29,04,30,2.70
2016,04,29,04,31,3.80
2016,04,29,04,32,2.20
2016,04,29,04,33,1.40
2016,04,29,04,34,2.00
2016,04,29,04,35,4.10
2016,04,29,04,36,3.40
2016,04,29,04,37,3.00
2016,04,29,04,38,3.60
2016,04,29,04,39,3.20
2016,04,29,04,40,1.40
2016,04,29,04,41,2.00
2016,04,29,04,42,4.10
2016,04,29,04,43,3.40
2016,04,29,04,44,4.10
2016,04,29,04,45,3.00
2016,04,29,04,46,4.70
2016,04,29,04,47,5.10
2016,04,29,04,48,7.00
2016,04,29,04,49,5.60
2016,04,29,04,50,3.60
2016,04,29,04,51,5.30
2016,04,29,04,52,5.30
2016,04,29,04,53,5.70
2016,04,29,04,54,5.30
2016,04,29,04,55,2.90
2016,04,29,04,56,5.30
2016,04,29,04,57,6.40
2016,04,29,04,58,2.50
2016,04,29,04,59,3.00
2016,04,29,05,00,2.30
2016,04,29,05,01,2.60
2016,04,29,05,02,3.60
2016,04,29,05,03,3.80
2016,04,29,05,04,6.80
2016,04,29,05,05,2.80
2016,04,29,05,06,3.20
2016,04,29,05,07,8.00
2016,04,29,05,08,5.90
2016,04,29,05,09,0.50
2016,04,29,05,10,1.20
2016,04,29,05,11,0.20
2016,04,29,05,12,0.90
2016,04,29,05,13,0.50
2016,04,29,05,14,0.70
2016,04,29,05,15,3.10
2016,04,29,05,16,4.30
2016,04,29,05,17,3.70
2016,04,29,05,18,1.70
2016,04,29,05,19,1.00
2016,04,29,05,20,0.10
2016,04,29,05,21,0.00
2016,04,29,05,22,1.90
2016,04,29,05,23,0.00
2016,04,29,05,24,0.00
2016,04,29,05,25,0.00
2016,04,29,05,26,0.40
2016,04,29,05,27,0.00
2016,04,29,05,28,2.30
2016,04,29,05,29,2.40
2016,04,29,05,30,2.40
2016,04,29,05,31,3.30
2016,04,29,05,32,1.40
2016,04,29,05,33,4.10
2016,04,29,05,34,1.30
2016,04,29,05,35,1.10
2016,04,29,05,36,1.10
2016,04,29,05,37,4.30
2016,04,29,05,38,1.50
2016,04,29,05,39,0.60
2016,04,29,05,40,0.00
2016,04,29,05,41,0.00
2016,04,29,05,42,0.60
2016,04,29,05,43,1.70
2016,04,29,05,44,2.00
2016,04,29,05,45,1.50
2016,04,29,05,46,5.40
2016,04,29,05,47,4.20
2016,04,29,05,48,2.80
2016,04,29,05,49,4.30
2016,04,29,05,50,2.00
2016,04,29,05,51,0.20
2016,04,29,05,52,3.70
2016,04,29,05,53,1.90
2016,04,29,05,54,1.40
2016,04,29,05,55,0.10
2016,04,29,05,56,0.00
2016,04,29,05,57,1.50
2016,04,29,05,58,0.20
2016,04,29,05,59,0.20
2016,04,29,06,00,0.10
2016,04,29,06,01,0.30
2016,04,29,06,02,1.20
2016,04,29,06,03,0.10
2016,04,29,06,04,1.60
2016,04,29,06,05,1.80
2016,04,29,06,06,0.40
2016,04,29,06,07,3.60
2016,04,29,06,08,0.80
2016,04,29,06,09,2.10
2016,04,29,06,10,1.80
2016,04,29,06,11,2.10
2016,04,29,06,12,0.20
2016,04,29,06,13,0.70
2016,04,29,06,14,2.70
2016,04,29,06,15,5.00
2016,04,29,06,16,0.30
2016,04,29,06,17,2.50
2016,04,29,06,18,1.10
2016,04,29,06,19,0.40
2016,04,29,06,20,1.90
2016,04,29,06,21,3.00
2016,04,29,06,22,0.10
2016,04,29,06,23,1.00
2016,04,29,06,24,0.30
2016,04,29,06,25,1.20
2016,04,29,06,26,2.30
2016,04,29,06,27,2.20
2016,04,29,06,28,1.20
2016,04,29,06,29,1.90
2016,04,29,06,30,3.20
2016,04,29,06,31,0.90
2016,04,29,06,32,2.50
2016,04,29,06,33,2.50
2016,04,29,06,34,1.30
2016,04,29,06,35,3.20
2016,04,29,06,36,7.80
2016,04,29,06,37,8.50
2016,04,29,06,38,2.80
2016,04,29,06,39,4.20
2016,04,29,06,40,0.20
2016,04,29,06,41,3.50
2016,04,29,06,42,0.90
2016,04,29,06,43,4.80
2016,04,29,06,44,5.40
2016,04,29,06,45,4.60
2016,04,29,06,46,3.60
2016,04,29,06,47,5.50
2016,04,29,06,48,1.50
2016,04,29,06,49,6.50
2016,04,29,06,50,5.60
2016,04,29,06,51,6.80
2016,04,29,06,52,3.00
2016,04,29,06,53,3.80
2016,04,29,06,54,4.80
2016,04,29,06,55,4.20
2016,04,29,06,56,2.60
2016,04,29,06,57,4.50
2016,04,29,06,58,4.70
2016,04,29,06,59,6.70
2016,04,29,07,00,5.10
2016,04,29,07,01,7.50
2016,04,29,07,02,3.20
2016,04,29,07,03,3.40
2016,04,29,07,04,1.40
2016,04,29,07,05,1.20
2016,04,29,07,06,4.40
2016,04,29,07,07,2.50
2016,04,29,07,08,5.70
2016,04,29,07,09,4.90
2016,04,29,07,10,3.20
2016,04,29,07,11,2.60
2016,04,29,07,12,3.50
2016,04,29,07,13,3.60
2016,04,29,07,14,3.90
2016,04,29,07,15,2.70
2016,04,29,07,16,3.20
2016,04,29,07,17,4.60
2016,04,29,07,18,0.90
2016,04,29,07,19,4.60
2016,04,29,07,20,8.50
2016,04,29,07,21,4.90
2016,04,29,07,22,1.60
2016,04,29,07,23,1.10
2016,04,29,07,24,2.10
2016,04,29,07,25,1.10
2016,04,29,07,26,0.50
2016,04,29,07,27,4.80
2016,04,29,07,28,4.20
2016,04,29,07,29,6.80
2016,04,29,07,30,7.20
2016,04,29,07,31,4.30
2016,04,29,07,32,5.00
2016,04,29,07,33,5.00
2016,04,29,07,34,4.00
2016,04,29,07,35,2.60
2016,04,29,07,36,1.40
2016,04,29,07,37,5.40
2016,04,29,07,38,4.70
2016,04,29,07,39,4.30
2016,04,29,07,40,5.10
2016,04,29,07,41,4.70
2016,04,29,07,42,4.80
2016,04,29,07,43,0.60
2016,04,29,07,44,2.70
2016,04,29,07,45,5.70
2016,04,29,07,46,3.10
2016,04,29,07,47,4.70
2016,04,29,07,48,5.30
2016,04,29,07,49,5.10
2016,04,29,07,50,5.20
2016,04,29,07,51,6.30
2016,04,29,07,52,4.50
2016,04,29,07,53,5.60
2016,04,29,07,54,4.20
2016,04,29,07,55,3.50
2016,04,29,07,56,5.60
2016,04,29,07,57,6.30
2016,04,29,07,58,6.00
2016,04,29,07,59,3.90
2016,04,29,08,00,5.80
2016,04,29,08,01,7.90
2016,04,29,08,02,5.80
2016,04,29,08,03,6.20
2016,04,29,08,04,7.60
2016,04,29,08,05,5.80
2016,04,29,08,06,6.80
2016,04,29,08,07,5.00
2016,04,29,08,08,5.80
2016,04,29,08,09,7.20
2016,04,29,08,10,2.90
2016,04,29,08,11,5.00
2016,04,29,08,12,5.20
2016,04,29,08,13,8.10
2016,04,29,08,14,4.40
2016,04,29,08,15,5.10
2016,04,29,08,16,6.80
2016,04,29,08,17,5.70
2016,04,29,08,18,5.60
2016,04,29,08,19,5.90
2016,04,29,08,20,2.50
2016,04,29,08,21,5.10
2016,04,29,08,22,3.60
2016,04,29,08,23,2.80
2016,04,29,08,24,2.20
2016,04,29,08,25,8.00
2016,04,29,08,26,3.70
2016,04,29,08,27,4.80
2016,04,29,08,28,4.00
2016,04,29,08,29,2.30
2016,04,29,08,30,2.00
2016,04,29,08,31,0.90
2016,04,29,08,32,4.20
2016,04,29,08,33,6.60
2016,04,29,08,34,7.50
2016,04,29,08,35,3.80
2016,04,29,08,36,6.40
2016,04,29,08,37,6.20
2016,04,29,08,38,5.20
2016,04,29,08,39,5.00
2016,04,29,08,40,5.30
2016,04,29,08,41,6.20
2016,04,29,08,42,8.20
2016,04,29,08,43,8.50
2016,04,29,08,44,5.10
2016,04,29,08,45,6.10
2016,04,29,08,46,6.20
2016,04,29,08,47,6.20
2016,04,29,08,48,5.70
2016,04,29,08,49,3.80
2016,04,29,08,50,4.70
2016,04,29,08,51,4.20
2016,04,29,08,52,7.30
2016,04,29,08,53,8.60
2016,04,29,08,54,5.10
2016,04,29,08,55,5.20
2016,04,29,08,56,7.80
2016,04,29,08,57,4.00
2016,04,29,08,58,3.60
2016,04,29,08,59,2.20
2016,04,29,09,00,2.50
2016,04,29,09,01,3.60
2016,04,29,09,02,0.80
2016,04,29,09,03,3.90
2016,04,29,09,04,5.60
2016,04,29,09,05,5.40
2016,04,29,09,06,2.30
2016,04,29,09,07,2.40
2016,04,29,09,08,5.10
2016,04,29,09,09,5.90
2016,04,29,09,10,4.80
2016,04,29,09,11,4.70
2016,04,29,09,12,3.90
2016,04,29,09,13,8.20
2016,04,29,09,14,7.20
2016,04,29,09,15,9.70
2016,04,29,09,16,7.00
2016,04,29,09,17,10.30
2016,04,29,09,18,8.40
2016,04,29,09,19,11.00
2016,04,29,09,20,8.70
2016,04,29,09,21,9.30
2016,04,29,09,22,6.40
2016,04,29,09,23,7.30
2016,04,29,09,24,6.10
2016,04,29,09,25,8.60
2016,04,29,09,26,5.40
2016,04,29,09,27,7.20
2016,04,29,09,28,5.30
2016,04,29,09,29,4.10
2016,04,29,09,30,6.10
2016,04,29,09,31,8.80
2016,04,29,09,32,6.50
2016,04,29,09,33,5.50
2016,04,29,09,34,6.40
2016,04,29,09,35,6.40
2016,04,29,09,36,7.20
2016,04,29,09,37,3.20
2016,04,29,09,38,3.90
2016,04,29,09,39,4.20
2016,04,29,09,40,2.90
2016,04,29,09,41,3.20
2016,04,29,09,42,7.10
2016,04,29,09,43,7.20
2016,04,29,09,44,3.90
2016,04,29,09,45,8.90
2016,04,29,09,46,4.90
2016,04,29,09,47,1.10
2016,04,29,09,48,2.30
2016,04,29,09,49,3.70
2016,04,29,09,50,6.70
2016,04,29,09,51,11.40
2016,04,29,09,52,11.60
2016,04,29,09,53,9.30
2016,04,29,09,54,7.00
2016,04,29,09,55,8.00
2016,04,29,09,56,5.30
2016,04,29,09,57,3.00
2016,04,29,09,58,3.50
2016,04,29,09,59,5.80
2016,04,29,10,00,5.60
2016,04,29,10,01,11.30
2016,04,29,10,02,8.60
2016,04,29,10,03,4.40
2016,04,29,10,04,5.10
2016,04,29,10,05,5.00
2016,04,29,10,06,2.60
2016,04,29,10,07,5.90
2016,04,29,10,08,7.00
2016,04,29,10,09,7.40
2016,04,29,10,10,10.10
2016,04,29,10,11,6.70
2016,04,29,10,12,5.40
2016,04,29,10,13,5.90
2016,04,29,10,14,6.90
2016,04,29,10,15,10.80
2016,04,29,10,16,6.20
2016,04,29,10,17,3.70
2016,04,29,10,18,5.80
2016,04,29,10,19,6.00
2016,04,29,10,20,4.80
2016,04,29,10,21,9.70
2016,04,29,10,22,10.30
2016,04,29,10,23,12.00
2016,04,29,10,24,10.60
2016,04,29,10,25,11.30
2016,04,29,10,26,7.90
2016,04,29,10,27,9.90
2016,04,29,10,28,10.30
2016,04,29,10,29,8.20
2016,04,29,10,30,9.50
2016,04,29,10,31,13.50
2016,04,29,10,32,12.60
2016,04,29,10,33,12.70
2016,04,29,10,34,11.30
2016,04,29,10,35,9.90
2016,04,29,10,36,11.00
2016,04,29,10,37,8.00
2016,04,29,10,38,6.80
2016,04,29,10,39,13.80
2016,04,29,10,40,8.50
2016,04,29,10,41,8.00
2016,04,29,10,42,3.60
2016,04,29,10,43,5.60
2016,04,29,10,44,3.90
2016,04,29,10,45,14.40
2016,04,29,10,46,11.30
2016,04,29,10,47,6.30
2016,04,29,10,48,7.00
2016,04,29,10,49,9.80
2016,04,29,10,50,7.80
2016,04,29,10,51,4.40
2016,04,29,10,52,9.30
2016,04,29,10,53,10.60
2016,04,29,10,54,9.70
2016,04,29,10,55,13.50
2016,04,29,10,56,9.80
2016,04,29,10,57,6.40
2016,04,29,10,58,12.50
2016,04,29,10,59,9.30
2016,04,29,11,00,6.20
2016,04,29,11,01,7.20
2016,04,29,11,02,6.60
2016,04,29,11,03,7.90
2016,04,29,11,04,10.50
2016,04,29,11,05,8.90
2016,04,29,11,06,6.00
2016,04,29,11,07,9.80
2016,04,29,11,08,11.80
2016,04,29,11,09,5.10
2016,04,29,11,10,2.50
2016,04,29,11,11,7.20
2016,04,29,11,12,7.60
2016,04,29,11,13,5.20
2016,04,29,11,14,10.80
2016,04,29,11,15,6.60
2016,04,29,11,16,3.90
2016,04,29,11,17,10.30
2016,04,29,11,18,9.70
2016,04,29,11,19,4.70
2016,04,29,11,20,7.20
2016,04,29,11,21,11.80
2016,04,29,11,22,11.50
2016,04,29,11,23,6.30
2016,04,29,11,24,3.70
2016,04,29,11,25,6.70
2016,04,29,11,26,9.80
2016,04,29,11,27,10.90
2016,04,29,11,28,8.50
2016,04,29,11,29,8.80
2016,04,29,11,30,9.00
2016,04,29,11,31,11.30
2016,04,29,11,32,17.20
2016,04,29,11,33,11.20
2016,04,29,11,34,10.10
2016,04,29,11,35,11.30
2016,04,29,11,36,8.10
2016,04,29,11,37,6.80
2016,04,29,11,38,7.40
2016,04,29,11,39,8.30
2016,04,29,11,40,8.00
2016,04,29,11,41,9.70
2016,04,29,11,42,7.40
2016,04,29,11,43,7.00
2016,04,29,11,44,11.20
2016,04,29,11,45,6.10
2016,04,29,11,46,9.70
2016,04,29,11,47,11.90
2016,04,29,11,48,8.30
2016,04,29,11,49,8.40
2016,04,29,11,50,8.80
2016,04,29,11,51,10.20
2016,04,29,11,52,9.40
2016,04,29,11,53,5.50
2016,04,29,11,54,11.90
2016,04,29,11,55,11.50
2016,04,29,11,56,9.60
2016,04,29,11,57,10.30
2016,04,29,11,58,11.50
2016,04,29,11,59,8.70
2016,04,29,12,00,7.20
2016,04,29,12,01,6.80
2016,04,29,12,02,10.30
2016,04,29,12,03,8.00
2016,04,29,12,04,8.60
2016,04,29,12,05,9.90
2016,04,29,12,06,9.70
2016,04,29,12,07,9.20
2016,04,29,12,08,13.60
2016,04,29,12,09,7.90
2016,04,29,12,10,7.00
2016,04,29,12,11,5.80
2016,04,29,12,12,8.40
2016,04,29,12,13,15.80
2016,04,29,12,14,8.40
2016,04,29,12,15,9.60
2016,04,29,12,16,15.00
2016,04,29,12,17,10.30
2016,04,29,12,18,8.80
2016,04,29,12,19,10.10
2016,04,29,12,20,7.50
2016,04,29,12,21,10.30
2016,04,29,12,22,10.20
2016,04,29,12,23,6.10
2016,04,29,12,24,5.00
2016,04,29,12,25,10.90
2016,04,29,12,26,11.10
2016,04,29,12,27,10.30
2016,04,29,12,28,8.40
2016,04,29,12,29,12.50
2016,04,29,12,30,14.30
2016,04,29,12,31,9.40
2016,04,29,12,32,9.50
2016,04,29,12,33,10.40
2016,04,29,12,34,11.20
2016,04,29,12,35,11.40
2016,04,29,12,36,11.30
2016,04,29,12,37,8.60
2016,04,29,12,38,8.70
2016,04,29,12,39,6.30
2016,04,29,12,40,4.60
2016,04,29,12,41,4.30
2016,04,29,12,42,2.90
2016,04,29,12,43,3.30
2016,04,29,12,44,3.60
2016,04,29,12,45,7.00
2016,04,29,12,46,4.60
2016,04,29,12,47,5.50
2016,04,29,12,48,6.70
2016,04,29,12,49,8.10
2016,04,29,12,50,11.80
2016,04,29,12,51,10.40
2016,04,29,12,52,5.80
2016,04,29,12,53,8.10
2016,04,29,12,54,8.60
2016,04,29,12,55,8.90
2016,04,29,12,56,13.40
2016,04,29,12,57,12.20
2016,04,29,12,58,9.20
2016,04,29,12,59,9.70
2016,04,29,13,00,8.90
2016,04,29,13,01,7.60
2016,04,29,13,02,6.00
2016,04,29,13,03,7.60
2016,04,29,13,04,7.30
2016,04,29,13,05,7.10
2016,04,29,13,06,9.50
2016,04,29,13,07,7.60
2016,04,29,13,08,8.40
2016,04,29,13,09,4.70
2016,04,29,13,10,5.80
2016,04,29,13,11,9.80
2016,04,29,13,12,6.20
2016,04,29,13,13,4.70
2016,04,29,13,14,7.80
2016,04,29,13,15,8.40
2016,04,29,13,16,9.80
2016,04,29,13,17,8.50
2016,04,29,13,18,9.10
2016,04,29,13,19,9.10
2016,04,29,13,20,7.20
2016,04,29,13,21,7.50
2016,04,29,13,22,9.40
2016,04,29,13,23,12.30
2016,04,29,13,24,14.70
2016,04,29,13,25,11.20
2016,04,29,13,26,15.80
2016,04,29,13,27,8.50
2016,04,29,13,28,7.60
2016,04,29,13,29,12.20
2016,04,29,13,30,8.90
2016,04,29,13,31,8.30
2016,04,29,13,32,8.90
2016,04,29,13,33,8.00
2016,04,29,13,34,14.10
2016,04,29,13,35,11.80
2016,04,29,13,36,10.00
2016,04,29,13,37,10.40
2016,04,29,13,38,10.00
2016,04,29,13,39,14.50
2016,04,29,13,40,10.90
2016,04,29,13,41,8.50
2016,04,29,13,42,12.20
2016,04,29,13,43,10.30
2016,04,29,13,44,9.80
2016,04,29,13,45,9.90
2016,04,29,13,46,4.10
2016,04,29,13,47,7.20
2016,04,29,13,48,10.50
2016,04,29,13,49,14.80
2016,04,29,13,50,9.80
2016,04,29,13,51,15.80
2016,04,29,13,52,12.80
2016,04,29,13,53,9.20
2016,04,29,13,54,11.00
2016,04,29,13,55,13.80
2016,04,29,13,56,12.00
2016,04,29,13,57,11.90
2016,04,29,13,58,10.80
2016,04,29,13,59,7.10
2016,04,29,14,00,12.20
2016,04,29,14,01,9.70
2016,04,29,14,02,10.30
2016,04,29,14,03,6.30
2016,04,29,14,04,4.60
2016,04,29,14,05,8.10
2016,04,29,14,06,12.70
2016,04,29,14,07,8.80
2016,04,29,14,08,11.90
2016,04,29,14,09,4.90
2016,04,29,14,10,1.50
2016,04,29,14,11,3.10
2016,04,29,14,12,5.80
2016,04,29,14,13,7.40
2016,04,29,14,14,5.60
2016,04,29,14,15,8.00
2016,04,29,14,16,8.90
2016,04,29,14,17,6.60
2016,04,29,14,18,8.80
2016,04,29,14,19,7.10
2016,04,29,14,20,15.10
2016,04,29,14,21,11.60
2016,04,29,14,22,6.50
2016,04,29,14,23,8.00
2016,04,29,14,24,11.30
2016,04,29,14,25,15.30
2016,04,29,14,26,14.90
2016,04,29,14,27,18.30
2016,04,29,14,28,9.90
2016,04,29,14,29,16.10
2016,04,29,14,30,6.70
2016,04,29,14,31,10.10
2016,04,29,14,32,14.80
2016,04,29,14,33,15.30
2016,04,29,14,34,14.30
2016,04,29,14,35,8.70
2016,04,29,14,36,7.50
2016,04,29,14,37,10.80
2016,04,29,14,38,8.10
2016,04,29,14,39,11.50
2016,04,29,14,40,14.90
2016,04,29,14,41,7.50
2016,04,29,14,42,8.40
2016,04,29,14,43,13.70
2016,04,29,14,44,7.90
2016,04,29,14,45,6.80
2016,04,29,14,46,6.10
2016,04,29,14,47,8.80
2016,04,29,14,48,13.60
2016,04,29,14,49,11.50
2016,04,29,14,50,10.20
2016,04,29,14,51,13.90
2016,04,29,14,52,13.20
2016,04,29,14,53,11.20
2016,04,29,14,54,11.70
2016,04,29,14,55,11.40
2016,04,29,14,56,14.80
2016,04,29,14,57,15.40
2016,04,29,14,58,15.40
2016,04,29,14,59,8.00
2016,04,29,15,00,16.50
2016,04,29,15,01,15.70
2016,04,29,15,02,11.00
2016,04,29,15,03,13.80
2016,04,29,15,04,11.30
2016,04,29,15,05,11.30
2016,04,29,15,06,8.00
2016,04,29,15,07,17.50
2016,04,29,15,08,16.80
2016,04,29,15,09,11.60
2016,04,29,15,10,9.50
2016,04,29,15,11,18.00
2016,04,29,15,12,9.50
2016,04,29,15,13,8.80
2016,04,29,15,14,10.10
2016,04,29,15,15,9.60
2016,04,29,15,16,11.70
2016,04,29,15,17,13.10
2016,04,29,15,18,14.50
2016,04,29,15,19,7.70
2016,04,29,15,20,7.20
2016,04,29,15,21,2.00
2016,04,29,15,22,7.70
2016,04,29,15,23,9.70
2016,04,29,15,24,14.50
2016,04,29,15,25,15.80
2016,04,29,15,26,6.60
2016,04,29,15,27,8.20
2016,04,29,15,28,13.20
2016,04,29,15,29,16.40
2016,04,29,15,30,16.80
2016,04,29,15,31,7.20
2016,04,29,15,32,9.50
2016,04,29,15,33,9.60
2016,04,29,15,34,12.10
2016,04,29,15,35,13.00
2016,04,29,15,36,16.10
2016,04,29,15,37,11.80
2016,04,29,15,38,6.90
2016,04,29,15,39,7.60
2016,04,29,15,40,11.50
2016,04,29,15,41,12.30
2016,04,29,15,42,10.90
2016,04,29,15,43,14.60
2016,04,29,15,44,9.40
2016,04,29,15,45,10.50
2016,04,29,15,46,14.50
2016,04,29,15,47,10.90
2016,04,29,15,48,15.10
2016,04,29,15,49,11.30
2016,04,29,15,50,13.80
2016,04,29,15,51,9.90
2016,04,29,15,52,11.90
2016,04,29,15,53,14.70
2016,04,29,15,54,6.00
2016,04,29,15,55,11.40
2016,04,29,15,56,8.80
2016,04,29,15,57,5.00
2016,04,29,15,58,6.00
2016,04,29,15,59,9.10
2016,04,29,16,00,8.90
2016,04,29,16,01,14.60
2016,04,29,16,02,11.30
2016,04,29,16,03,12.70
2016,04,29,16,04,14.90
2016,04,29,16,05,13.20
2016,04,29,16,06,9.20
2016,04,29,16,07,6.40
2016,04,29,16,08,8.50
2016,04,29,16,09,12.40
2016,04,29,16,10,11.20
2016,04,29,16,11,15.70
2016,04,29,16,12,10.50
2016,04,29,16,13,7.80
2016,04,29,16,14,6.00
2016,04,29,16,15,14.30
2016,04,29,16,16,10.30
2016,04,29,16,17,13.80
2016,04,29,16,18,8.50
2016,04,29,16,19,5.00
2016,04,29,16,20,7.10
2016,04,29,16,21,7.00
2016,04,29,16,22,7.20
2016,04,29,16,23,6.00
2016,04,29,16,24,7.50
2016,04,29,16,25,14.80
2016,04,29,16,26,14.50
2016,04,29,16,27,10.20
2016,04,29,16,28,8.70
2016,04,29,16,29,16.30
2016,04,29,16,30,13.80
2016,04,29,16,31,13.80
2016,04,29,16,32,13.00
2016,04,29,16,33,10.70
2016,04,29,16,34,14.70
2016,04,29,16,35,9.60
2016,04,29,16,36,7.90
2016,04,29,16,37,15.70
2016,04,29,16,38,13.90
2016,04,29,16,39,9.80
2016,04,29,16,40,11.30
2016,04,29,16,41,11.90
2016,04,29,16,42,16.60
2016,04,29,16,43,11.60
2016,04,29,16,44,10.60
2016,04,29,16,45,13.60
2016,04,29,16,46,11.50
2016,04,29,16,47,13.00
2016,04,29,16,48,11.10
2016,04,29,16,49,9.20
2016,04,29,16,50,3.10
2016,04,29,16,51,3.90
2016,04,29,16,52,9.60
2016,04,29,16,53,8.40
2016,04,29,16,54,13.90
2016,04,29,16,55,12.60
2016,04,29,16,56,5.30
2016,04,29,16,57,10.10
2016,04,29,16,58,8.30
2016,04,29,16,59,8.40
2016,04,29,17,00,5.60
2016,04,29,17,01,3.90
2016,04,29,17,02,4.80
2016,04,29,17,03,3.50
2016,04,29,17,04,10.00
2016,04,29,17,05,8.40
2016,04,29,17,06,8.30
2016,04,29,17,07,7.40
2016,04,29,17,08,7.70
2016,04,29,17,09,8.90
2016,04,29,17,10,10.30
2016,04,29,17,11,12.60
2016,04,29,17,12,16.60
2016,04,29,17,13,11.50
2016,04,29,17,14,8.80
2016,04,29,17,15,14.40
2016,04,29,17,16,9.40
2016,04,29,17,17,10.70
2016,04,29,17,18,11.00
2016,04,29,17,19,6.00
2016,04,29,17,20,9.00
2016,04,29,17,21,15.20
2016,04,29,17,22,13.80
2016,04,29,17,23,10.80
2016,04,29,17,24,14.90
2016,04,29,17,25,12.60
2016,04,29,17,26,11.90
2016,04,29,17,27,15.70
2016,04,29,17,28,15.40
2016,04,29,17,29,12.70
2016,04,29,17,30,6.40
2016,04,29,17,31,8.00
2016,04,29,17,32,17.20
2016,04,29,17,33,15.20
2016,04,29,17,34,10.80
2016,04,29,17,35,7.90
2016,04,29,17,36,15.80
2016,04,29,17,37,14.60
2016,04,29,17,38,11.40
2016,04,29,17,39,12.40
2016,04,29,17,40,6.60
2016,04,29,17,41,11.00
2016,04,29,17,42,13.30
2016,04,29,17,43,10.00
2016,04,29,17,44,12.50
2016,04,29,17,45,15.30
2016,04,29,17,46,6.80
2016,04,29,17,47,5.10
2016,04,29,17,48,5.50
2016,04,29,17,49,7.60
2016,04,29,17,50,3.90
2016,04,29,17,51,6.70
2016,04,29,17,52,6.80
2016,04,29,17,53,11.50
2016,04,29,17,54,7.80
2016,04,29,17,55,10.60